Theta_e
324 325 327 329 329 321 316 313 299 301 303 295 296 299 295 301 303 301 301 301 299 297 296 297 296 297 299 299 297 295 294 298 295 293 292 294 295 293 294 293 293 294 294 295 298 301 303 306 308 309 309 309 310 310 310 311 311 311 311 312 313 313 314 314 315 315 315 315 316 316 316 316 316 317 317 317 317 318 319 319 320 322 323 325 326 326 327 328 327 329 330 330 330 330 330 331 331
320 325 322 321 320 325 308 310 301 298 299 295 294 298 298 302 301 301 300 301 299 297 296 296 296 295 295 295 294 295 295 294 295 294 293 296 296 295 293 293 292 292 293 295 297 299 302 304 307 307 307 307 308 309 309 310 310 309 310 310 312 312 313 313 313 314 314 314 314 314 315 315 315 315 316 315 315 316 317 318 319 319 321 322 325 325 326 326 326 327 328 328 329 329 330 330 329
316 324 325 327 314 312 308 307 296 296 294 291 293 298 300 299 299 301 301 301 298 296 295 294 293 294 297 295 296 294 294 293 293 293 293 293 293 293 293 294 293 292 292 294 296 298 301 303 305 306 306 306 307 307 307 308 309 308 309 310 311 311 312 312 312 312 312 313 313 313 313 313 313 313 313 313 314 315 315 316 317 317 319 320 322 322 324 325 325 325 326 327 327 328 328 328 327
320 317 323 321 308 312 304 300 299 295 293 294 293 297 298 300 298 301 300 300 296 296 297 295 294 292 294 295 295 294 293 293 292 292 291 292 294 293 293 294 293 293 294 294 295 297 300 303 304 305 305 305 306 306 306 307 307 306 308 309 309 310 310 311 311 311 311 311 312 312 312 312 311 311 312 312 312 313 314 315 315 315 317 318 319 321 322 322 323 324 324 324 325 326 327 326 326
315 316 317 315 311 302 303 297 296 297 291 294 293 297 298 299 300 299 297 297 296 295 296 296 295 292 291 292 292 294 294 293 292 292 294 293 293 293 293 294 292 293 293 293 294 296 299 302 303 304 304 304 305 305 305 305 305 305 306 306 308 308 309 309 310 310 310 310 311 311 311 310 309 309 310 312 311 312 312 313 313 313 315 317 318 319 320 321 322 323 324 323 323 324 325 325 324
315 312 312 313 303 304 303 296 294 294 294 296 294 295 299 300 300 299 296 296 296 296 296 296 295 294 293 291 292 293 294 293 293 292 293 292 292 292 293 294 292 292 292 293 293 294 297 302 302 303 303 303 303 303 304 304 304 305 305 305 305 306 306 308 308 309 309 309 309 309 309 307 307 308 309 311 311 311 311 311 313 312 313 315 316 317 317 319 320 321 321 321 321 323 323 323 323
318 314 310 307 305 305 297 294 293 293 293 294 296 297 298 299 300 298 295 294 295 294 295 295 293 293 292 291 290 292 292 291 291 293 293 293 292 292 293 292 293 292 292 292 293 293 296 301 301 301 302 302 302 302 303 303 303 303 304 304 304 305 305 307 307 307 306 306 307 307 307 306 306 306 308 308 310 309 309 310 310 311 313 313 315 315 315 316 317 318 319 320 321 320 321 321 321
316 315 306 302 297 300 295 294 293 295 293 294 295 298 299 299 298 298 296 294 293 292 292 293 293 291 292 291 292 290 290 291 292 292 293 292 292 292 292 292 293 291 292 292 293 293 293 299 300 300 301 300 301 301 301 301 302 302 303 303 303 304 304 305 305 305 304 305 305 305 304 304 304 305 307 307 308 308 307 308 308 310 309 312 313 313 313 314 314 315 316 318 319 320 320 320 320
310 307 304 304 296 297 294 293 292 292 293 294 295 296 297 299 299 298 295 294 292 292 291 292 293 291 292 290 291 291 291 291 291 292 292 292 291 292 292 292 292 292 291 292 292 293 293 296 299 299 300 300 300 300 300 300 300 301 301 301 302 302 302 303 303 303 303 303 303 303 303 302 303 304 305 305 307 307 305 306 306 307 309 310 310 311 311 311 311 312 313 315 317 318 319 317 318
306 307 301 300 300 293 293 291 292 292 293 294 294 294 295 297 296 295 294 292 293 292 292 292 292 290 289 291 294 291 293 291 291 291 291 291 292 292 291 292 292 291 291 292 292 292 293 292 296 297 299 299 299 299 299 299 299 299 300 299 300 300 300 301 302 301 301 301 301 301 301 301 301 302 302 303 306 304 303 304 305 306 308 308 308 309 309 310 310 310 311 313 314 315 316 317 315
303 304 302 299 295 292 293 290 292 291 291 292 292 293 294 296 295 293 294 293 292 293 291 290 289 291 289 290 293 291 291 291 290 290 291 291 292 291 291 292 292 291 292 292 292 292 292 293 291 294 296 297 297 297 298 298 298 298 298 298 299 299 299 300 300 300 300 299 299 299 300 299 299 300 301 301 302 302 301 302 303 304 306 307 307 307 307 308 309 309 310 311 312 313 314 314 313
303 301 303 296 294 294 292 293 291 292 291 291 291 292 293 294 294 292 292 291 291 291 291 290 291 292 289 291 293 291 290 289 290 292 291 292 291 291 292 292 292 292 291 291 292 292 293 292 294 291 293 294 294 295 295 296 296 297 297 297 297 297 297 298 298 298 298 297 297 298 298 297 297 297 298 299 300 299 299 300 301 302 304 305 305 305 305 306 307 308 309 309 310 311 310 310 310
303 302 298 296 292 293 292 292 292 291 291 290 292 292 293 291 291 293 292 292 292 291 291 292 290 290 289 289 291 290 288 290 291 292 292 291 292 292 292 292 292 292 292 293 292 292 292 292 293 293 293 291 292 292 293 294 295 296 296 296 296 295 296 296 296 296 296 296 296 296 295 294 294 295 296 297 298 297 297 298 299 300 301 302 302 303 302 303 305 306 306 306 307 307 307 307 308
304 302 300 294 290 292 292 292 291 290 291 293 293 291 291 291 292 292 293 290 291 291 291 292 290 290 289 289 291 291 292 293 291 292 291 291 292 291 291 291 292 292 292 293 293 293 293 292 292 293 293 293 293 293 292 292 293 294 295 294 294 294 294 295 295 295 295 294 294 293 293 292 292 293 294 295 296 296 295 296 297 298 299 300 300 301 300 300 302 304 304 304 305 305 305 305 305
300 299 297 293 291 291 291 291 291 291 292 293 291 291 290 290 289 290 292 290 291 290 289 291 292 289 289 289 290 291 291 292 291 291 291 291 291 291 291 291 292 292 292 292 292 292 292 292 291 292 293 292 292 293 293 293 292 293 293 293 293 293 294 294 294 294 293 293 292 292 291 291 291 291 292 292 294 293 293 293 294 297 298 298 298 298 298 298 299 302 301 302 302 302 302 302 302
301 301 298 295 291 292 291 290 290 290 291 292 290 291 291 288 290 290 291 290 291 288 290 289 290 290 290 290 290 289 289 290 291 291 290 290 290 291 291 291 291 291 293 293 292 293 292 291 292 292 292 292 292 292 292 292 292 292 293 292 292 292 293 293 293 293 292 291 291 290 291 290 290 290 290 290 292 292 291 291 292 295 296 296 296 296 296 296 298 298 299 300 300 299 299 299 299
299 304 296 294 292 290 292 291 290 290 291 290 288 290 290 290 289 289 287 288 289 289 288 291 289 289 288 290 288 288 289 290 291 290 289 289 289 290 290 291 291 292 291 292 293 292 292 291 291 291 292 291 292 292 291 292 291 291 292 291 291 291 292 292 292 291 290 290 290 290 290 289 290 290 289 289 290 290 290 290 291 292 294 294 294 294 293 294 296 296 296 298 297 296 295 294 295
301 299 295 294 293 291 293 292 292 290 290 290 288 290 292 290 287 288 288 288 288 289 287 290 290 288 290 290 287 287 288 290 289 288 288 288 289 289 290 291 291 291 292 292 292 292 292 291 291 291 292 291 291 291 291 292 293 292 292 292 291 291 291 290 290 290 289 290 289 289 289 289 289 289 289 289 289 289 289 289 289 290 291 292 292 292 291 292 293 293 294 295 293 293 292 290 290
299 295 295 292 294 292 292 293 292 290 290 292 291 290 291 291 290 288 287 288 287 287 289 289 289 290 291 290 289 288 289 289 289 288 288 288 289 289 290 291 292 291 292 292 293 292 292 292 292 291 291 291 291 291 291 292 292 292 292 291 291 290 290 291 290 290 289 289 289 289 289 289 289 289 289 289 289 289 289 289 289 289 289 289 290 290 289 289 291 291 291 292 291 290 289 288 288
291 296 293 293 292 290 290 290 291 289 291 290 290 289 288 289 289 288 287 289 287 288 290 289 288 290 292 292 289 288 288 289 289 288 288 289 290 290 290 290 291 292 292 292 293 293 292 292 292 292 291 291 291 292 292 292 292 292 291 291 290 290 290 290 289 289 289 289 288 288 288 288 289 288 288 288 288 288 288 289 288 288 288 288 287 288 288 288 288 288 288 289 289 290 289 288 287
292 295 293 292 291 290 289 288 290 288 290 291 290 287 287 289 288 288 288 287 288 289 292 292 291 291 293 294 290 289 288 289 289 288 288 289 290 291 291 291 291 292 293 293 293 292 292 292 292 291 291 291 291 291 291 291 292 291 290 289 290 289 289 289 288 288 289 288 288 288 288 288 288 288 288 288 287 287 287 288 288 288 288 288 287 288 288 288 288 288 288 288 288 289 288 287 286
293 289 288 290 289 290 288 288 287 288 288 290 288 288 289 288 287 287 288 287 290 293 293 294 294 294 294 292 290 289 288 288 288 288 288 289 289 290 290 291 292 292 293 291 291 292 293 293 292 292 291 291 291 291 290 290 290 289 289 288 288 288 289 288 288 288 288 288 287 287 287 287 287 287 287 287 287 287 287 287 287 288 288 288 288 287 287 287 287 287 287 287 286 287 287 286 286
292 288 288 289 288 289 287 288 286 288 289 289 288 289 288 287 288 288 288 288 292 291 291 292 293 293 291 290 290 288 288 288 288 288 288 289 289 290 290 291 291 291 291 291 292 292 293 292 292 292 291 291 291 291 290 290 290 289 289 289 287 287 289 287 287 287 287 287 287 287 286 285 285 285 286 286 286 287 286 286 286 287 287 287 287 286 287 287 287 286 287 286 286 286 286 285 285
295 290 288 287 287 288 285 287 285 286 288 288 288 288 288 287 286 288 286 289 293 291 288 289 289 288 289 288 288 288 288 289 289 289 290 290 290 290 291 291 291 292 292 292 292 292 293 293 292 290 291 291 291 291 289 289 289 289 288 289 288 287 288 286 286 286 287 286 286 286 286 285 284 284 285 285 285 286 286 286 287 286 287 286 287 287 286 286 286 286 286 286 285 286 285 285 285
293 289 287 287 287 286 286 286 286 286 285 286 287 287 288 288 287 284 285 289 291 292 288 287 287 287 286 287 288 288 289 289 289 290 290 290 290 291 291 291 291 292 290 291 292 292 292 293 291 290 290 290 290 290 289 289 288 288 288 287 287 287 287 286 286 286 286 286 285 286 286 284 284 285 285 285 285 285 285 286 286 286 287 286 287 286 286 286 285 285 285 285 285 285 284 284 285
291 288 288 287 287 287 286 287 286 286 287 286 286 287 288 285 285 284 288 290 292 292 289 289 287 287 287 287 288 288 288 289 289 290 290 290 290 289 289 290 291 290 290 291 291 292 292 292 291 290 290 290 290 289 289 289 288 287 288 287 286 287 286 286 286 285 285 285 285 285 285 284 284 284 284 284 284 284 285 285 286 286 286 286 286 285 286 285 285 285 285 285 285 285 284 284 284
289 289 289 288 286 287 287 287 286 286 287 286 286 287 287 284 285 286 291 287 286 288 288 288 286 287 288 288 288 288 288 289 289 290 290 290 290 289 289 290 290 290 291 290 291 292 293 292 291 290 290 290 289 288 288 288 288 287 287 287 287 286 286 286 286 285 285 285 285 285 284 284 284 284 283 283 283 283 284 284 285 286 285 285 286 285 286 285 285 285 285 284 284 284 284 284 284
289 289 289 288 287 287 287 287 286 287 287 285 286 286 287 284 284 286 291 285 286 287 287 287 286 287 288 288 287 288 288 289 289 289 288 288 289 289 290 290 290 291 290 290 291 292 292 291 291 291 290 289 289 288 288 288 287 287 287 286 286 286 286 285 285 285 285 284 285 284 284 283 284 283 283 283 283 283 283 283 284 285 284 285 285 285 285 285 285 285 285 285 285 285 284 284 284
288 291 289 288 288 287 286 287 286 286 287 285 286 284 282 283 283 290 290 286 286 285 286 286 286 287 287 288 287 287 288 288 288 288 288 290 291 291 290 291 291 291 292 292 292 292 291 291 290 290 289 288 288 287 287 287 287 286 286 286 286 286 285 285 284 284 284 284 284 284 283 283 283 283 282 282 283 282 283 283 283 284 284 285 285 285 285 284 284 284 284 285 284 284 284 283 284
290 290 289 288 288 288 286 286 285 286 286 284 286 285 290 285 288 291 287 287 285 285 286 288 287 287 287 287 287 287 288 288 287 288 289 289 290 290 290 291 292 291 291 292 291 291 291 290 289 289 289 287 287 287 286 286 286 286 286 286 286 285 285 284 284 284 284 283 283 283 283 283 282 282 282 282 282 282 282 282 282 283 283 284 284 284 283 284 283 283 283 283 283 283 283 283 282
290 289 290 288 288 289 286 286 286 286 285 285 287 284 290 290 290 291 288 286 286 287 290 290 288 287 287 287 287 287 288 289 288 289 289 289 289 290 290 291 291 291 291 291 291 291 290 290 289 288 288 287 287 286 286 286 286 286 286 286 285 285 284 284 284 284 283 283 283 282 282 282 282 282 282 281 281 281 281 281 282 282 283 283 282 283 283 283 283 282 282 282 282 282 282 283 282
289 289 288 288 287 289 286 287 286 286 285 286 287 284 288 291 291 289 286 286 285 286 289 290 289 288 288 288 287 288 288 289 289 289 289 289 289 289 289 289 290 290 290 290 291 291 290 290 290 288 288 288 286 287 286 286 285 285 285 285 285 285 283 283 283 283 282 282 282 282 282 282 281 281 282 281 280 281 281 281 281 282 282 282 282 282 282 282 282 282 282 282 280 281 282 281 282
289 288 287 286 286 288 288 284 285 285 285 286 286 285 288 289 288 285 285 285 285 286 287 289 289 289 288 288 288 288 289 289 289 289 289 289 289 289 289 289 290 290 290 290 289 290 290 289 289 288 288 287 287 286 286 286 285 284 284 284 284 284 283 283 283 282 282 281 281 281 281 281 281 281 281 281 280 280 280 281 281 282 282 282 282 282 281 282 282 281 281 282 281 280 280 280 281
288 288 287 287 284 286 286 285 285 285 285 285 286 283 286 289 290 289 284 287 286 286 287 288 288 289 289 289 289 288 288 288 289 290 291 290 290 289 289 290 290 290 290 290 289 289 289 289 289 289 288 287 287 286 285 285 284 284 283 283 283 282 282 282 282 282 281 281 281 280 281 280 280 280 281 281 280 280 280 280 281 281 281 281 281 281 281 282 281 281 280 281 281 280 280 280 280
286 287 286 287 286 285 285 285 286 284 286 283 285 284 285 287 290 291 292 290 287 287 288 288 289 289 289 289 288 288 288 288 289 291 291 291 290 290 290 290 289 289 289 289 289 288 288 288 288 288 288 287 286 285 285 285 284 283 283 282 282 282 282 282 282 281 281 281 280 280 280 280 280 280 280 280 279 279 279 280 280 280 280 280 280 280 280 280 281 281 280 280 281 281 280 280 280
287 286 285 284 283 286 285 288 286 285 285 285 285 284 286 288 289 291 291 290 288 288 288 288 288 288 288 288 288 288 288 289 290 292 292 291 291 290 290 290 289 289 289 288 288 288 287 287 287 287 287 287 286 284 284 284 283 282 281 281 280 281 281 281 281 280 281 280 280 280 279 279 279 279 279 279 279 279 278 279 279 280 279 279 278 278 279 279 279 279 279 279 279 280 281 280 280
285 285 283 284 284 285 287 286 285 286 283 284 286 286 286 287 288 290 291 290 288 287 287 287 288 288 288 288 288 289 289 290 293 292 292 291 291 290 290 289 288 288 288 288 287 287 287 287 287 285 286 286 285 284 283 283 282 282 282 281 281 281 281 280 280 280 280 280 280 279 279 278 279 279 279 278 278 278 278 278 278 278 279 278 278 278 279 279 279 279 279 279 278 278 278 280 280
285 284 283 284 284 283 286 284 283 286 283 285 286 284 285 287 289 290 289 287 286 287 287 288 288 289 289 289 289 290 291 292 291 291 292 291 290 290 289 288 288 287 287 287 287 287 287 287 286 286 286 285 284 284 284 283 283 283 283 282 281 281 280 280 279 280 279 279 279 278 278 279 279 279 278 278 278 278 277 277 277 277 278 278 278 278 278 279 278 278 279 277 279 278 277 279 280
284 284 284 283 286 285 286 282 284 284 283 283 284 282 284 287 289 289 287 287 288 288 288 288 288 289 289 289 289 290 290 290 291 291 291 291 291 291 289 288 288 288 288 288 287 287 287 286 286 286 286 285 284 284 284 283 283 283 282 282 281 281 281 280 280 280 280 279 278 278 278 278 278 278 278 278 277 277 277 277 277 277 277 278 277 277 277 277 277 277 277 276 276 278 278 280 279
284 284 284 285 285 282 284 284 281 284 282 282 283 281 284 288 288 286 285 284 286 286 285 287 287 288 289 290 290 290 289 290 291 293 293 293 292 291 290 289 289 288 287 287 287 286 286 286 286 285 285 285 285 284 284 284 284 283 283 282 281 280 279 280 278 278 278 277 277 278 278 278 278 278 278 277 277 277 277 276 277 276 277 277 276 276 276 276 277 277 277 277 277 275 277 277 279
285 284 284 284 284 284 282 284 284 285 285 282 282 283 285 287 287 288 286 284 283 286 285 285 286 287 288 288 287 288 288 290 291 292 293 293 293 292 292 291 290 288 288 287 287 286 285 286 286 286 285 285 284 284 284 284 282 281 281 280 280 279 278 278 277 277 277 277 277 277 277 277 277 277 277 277 277 276 277 276 276 276 276 276 277 276 276 276 277 277 277 276 276 275 275 276 277
286 285 285 284 283 282 283 283 282 284 283 280 281 281 285 286 287 288 289 287 288 286 286 289 289 288 288 287 288 290 290 290 290 291 292 292 291 291 292 291 290 289 288 288 288 287 287 286 286 286 285 285 284 284 283 283 282 280 279 278 277 277 276 277 276 276 277 277 277 278 278 277 277 277 277 277 277 277 276 276 276 276 276 276 276 276 276 276 276 276 276 276 276 276 275 274 275
283 285 283 283 282 281 282 281 282 282 281 282 282 280 281 288 287 289 286 286 288 289 289 290 289 290 289 289 290 291 291 292 292 290 290 290 291 291 292 292 292 290 290 290 288 287 287 286 286 286 285 284 284 283 283 283 281 281 280 279 279 279 278 279 279 279 279 278 278 277 277 277 277 276 277 277 276 276 276 276 276 276 276 276 276 276 275 275 276 276 276 276 276 276 275 274 275
284 282 282 282 281 281 281 280 281 281 283 283 280 282 279 280 287 285 284 285 288 289 291 292 292 291 291 290 291 291 292 291 291 291 291 292 292 292 291 292 292 291 291 290 289 288 286 286 286 285 285 284 284 283 282 282 281 281 280 279 279 279 279 279 279 278 278 278 277 276 276 276 276 276 276 276 276 276 275 275 275 276 275 276 275 275 275 276 276 276 276 276 276 276 275 275 275
284 281 283 282 281 281 281 281 281 281 278 281 281 281 279 280 286 283 285 286 288 289 290 291 293 293 293 293 293 293 293 292 291 290 290 291 291 292 292 291 291 291 291 290 289 288 287 286 285 285 284 284 284 283 282 282 282 281 280 280 278 279 279 279 279 279 277 277 276 276 276 276 276 276 276 275 276 275 275 275 275 275 275 275 276 275 275 276 275 275 275 275 275 275 275 276 275
283 283 282 281 281 280 281 280 281 279 278 280 279 280 278 281 287 287 284 286 286 288 290 291 292 293 293 294 294 295 294 293 292 291 291 292 292 292 292 292 291 291 291 290 289 288 287 286 285 284 283 284 283 283 282 281 281 281 280 279 279 278 279 279 278 277 277 277 276 276 276 275 275 275 275 275 275 275 275 275 275 275 275 275 275 275 275 275 275 275 275 275 275 274 275 275 275
284 283 282 281 280 281 280 281 280 279 277 281 278 278 279 277 285 286 286 286 288 288 290 291 293 293 293 293 294 294 292 291 291 291 291 292 293 292 293 292 293 293 292 290 289 288 286 285 285 283 283 284 283 282 282 281 280 280 280 279 279 278 278 278 277 277 276 276 275 275 275 275 276 275 275 275 275 275 275 275 275 275 275 275 275 275 274 275 275 275 275 275 275 274 274 275 275
283 283 283 284 281 279 280 279 280 277 279 278 278 277 279 276 283 287 289 286 285 287 287 289 291 292 293 294 293 291 290 290 291 291 291 292 292 293 293 292 292 292 292 292 290 289 287 286 285 283 283 283 283 282 281 280 280 280 279 279 278 278 278 277 277 276 276 275 275 275 275 275 275 275 275 274 274 274 274 274 275 275 275 274 274 275 275 275 275 275 275 275 274 274 274 274 274
284 284 284 281 280 281 278 280 277 278 278 278 277 278 278 278 283 288 289 289 288 287 289 290 290 290 290 291 291 290 290 290 290 290 290 291 291 291 291 291 292 291 290 290 290 290 288 286 285 283 283 283 283 282 281 280 280 279 279 279 278 278 278 278 277 277 277 276 276 275 275 274 274 274 274 274 274 274 274 274 274 274 274 274 275 274 275 275 275 274 274 274 274 274 274 274 274
284 284 282 280 277 275 273 277 278 278 280 277 278 279 276 282 285 289 288 290 290 289 289 289 288 288 288 289 289 289 289 290 290 290 290 291 291 291 291 291 291 290 290 290 290 290 288 286 285 283 283 284 283 282 281 280 280 280 279 279 278 278 278 278 277 277 277 276 276 275 275 274 274 274 274 274 274 274 274 275 275 274 275 275 275 275 274 274 274 274 274 274 274 274 274 274 274
283 282 282 282 280 277 272 276 274 276 277 278 277 276 277 280 284 286 287 288 288 287 286 286 287 287 288 288 287 288 289 290 291 290 290 291 291 291 291 291 291 290 290 290 290 290 289 287 286 284 283 283 283 282 281 280 279 280 279 279 278 278 278 277 277 277 277 276 276 275 275 275 274 274 274 274 275 274 274 274 274 274 274 274 274 274 274 274 274 274 274 274 274 274 274 274 274
281 282 283 281 280 284 277 277 276 274 274 276 274 277 283 284 287 289 289 288 286 285 287 287 290 289 288 288 289 289 289 290 290 290 290 291 291 291 291 291 290 290 290 290 290 290 289 289 287 285 284 284 283 282 281 280 280 279 279 278 278 278 278 277 277 277 276 276 276 275 274 274 274 274 274 274 274 274 274 274 274 274 274 274 274 273 273 274 273 273 273 274 273 274 273 273 273
281 281 281 281 282 282 278 275 272 272 273 273 281 279 282 286 287 288 289 288 289 289 289 289 288 288 288 288 288 289 289 289 290 290 290 291 291 291 291 290 290 290 290 290 290 290 289 288 287 286 285 284 283 282 281 281 280 279 278 278 278 277 277 276 276 276 276 276 275 275 274 274 273 273 273 274 273 274 274 274 273 273 273 273 273 273 273 273 273 273 273 273 273 273 273 273 273
283 280 281 280 280 282 280 275 274 274 272 276 278 277 280 280 278 288 288 286 287 287 287 287 288 288 287 287 288 288 288 289 290 290 291 291 291 290 290 290 290 290 290 289 289 289 288 287 286 285 285 284 284 283 282 281 280 279 278 278 278 277 277 276 276 276 276 275 275 274 274 273 273 272 272 272 273 273 273 273 273 273 273 273 273 273 273 273 272 272 273 273 273 273 273 273 273
282 281 283 280 278 277 278 276 272 272 272 274 277 278 278 279 280 285 284 284 284 285 286 286 286 287 287 287 288 288 289 289 289 289 290 290 290 289 289 290 291 291 291 290 289 289 288 288 287 286 284 284 284 283 282 281 281 279 279 278 278 277 277 276 276 276 276 275 274 274 273 273 273 272 272 272 271 272 272 272 273 272 272 272 272 273 273 272 272 272 272 272 272 272 272 272 272
282 282 281 280 280 279 277 278 276 275 272 272 274 274 276 282 283 283 284 284 284 284 284 285 286 286 287 287 287 287 288 288 289 289 290 290 289 289 289 290 290 290 290 290 290 290 289 288 287 286 285 285 283 283 282 281 281 280 279 278 278 278 277 276 276 276 275 275 274 274 273 272 272 272 272 272 271 271 271 272 272 272 272 272 272 272 272 272 272 272 272 272 272 272 271 271 272
278 280 279 279 278 279 279 276 276 276 274 273 272 271 279 283 285 285 284 284 284 284 284 286 286 287 287 287 287 287 288 288 289 289 289 289 288 289 290 290 290 290 290 290 289 289 289 289 288 287 285 284 283 283 283 281 281 280 279 278 277 277 277 276 276 275 275 274 274 273 272 272 272 271 271 271 271 271 271 271 271 272 272 271 271 271 272 272 272 271 271 271 272 271 271 271 272
283 282 281 282 277 276 274 274 274 272 274 273 271 271 279 284 285 286 285 285 285 286 286 286 286 287 287 287 288 288 288 289 289 289 289 288 288 289 290 290 290 290 289 289 289 289 289 288 288 288 287 284 284 283 283 282 281 280 279 279 278 278 277 276 275 275 274 274 273 272 272 272 271 271 271 270 270 270 271 271 271 271 271 271 271 271 272 272 271 270 271 271 270 270 270 270 271
Wind_Speed
5 3 2 1 1 2 1 5 2 3 1 6 6 1 4 0 2 5 3 3 3 3 2 2 3 1 3 4 6 5 2 4 4 5 3 3 4 4 4 4 4 4 5 5 6 8 11 16 19 20 20 20 20 21 21 21 22 22 22 22 22 22 22 22 22 21 21 22 21 22 22 22 22 22 23 23 24 25 25 25 25 24 25 24 25 25 26 27 29 27 28 29 30 30 31 33 32
3 1 2 3 2 4 3 5 4 3 4 6 5 1 4 3 4 3 4 2 4 5 3 1 3 4 5 4 3 0 5 5 4 5 4 3 3 2 3 3 4 5 5 5 7 9 10 13 17 17 18 18 18 19 19 20 20 21 21 22 22 22 22 21 22 21 21 21 21 21 21 21 22 22 22 22 23 23 24 24 24 25 25 25 25 25 25 25 26 26 28 27 28 31 29 31 30
3 2 4 3 7 5 3 2 2 3 5 5 4 2 3 5 4 3 2 3 6 6 2 1 1 1 2 1 4 3 3 1 2 2 4 4 4 4 3 2 3 4 5 6 7 8 8 11 14 15 16 16 17 18 18 19 19 20 20 20 20 20 21 21 21 20 20 20 20 20 21 21 21 21 21 21 22 22 22 23 23 24 24 24 24 24 25 25 25 25 26 27 28 28 29 29 29
2 5 3 1 2 1 2 2 3 1 4 5 5 4 5 4 4 5 4 4 6 3 1 1 2 2 4 5 2 1 3 3 1 2 3 5 2 5 3 2 1 3 4 5 6 6 7 11 13 14 15 16 16 17 18 18 19 19 19 19 19 20 20 20 20 20 20 20 20 20 20 20 21 21 21 21 21 21 22 22 23 23 23 24 24 23 23 25 25 25 25 26 27 28 28 27 30
5 5 5 1 1 4 2 3 2 1 5 3 4 6 4 3 6 5 5 4 4 1 3 1 2 2 2 3 0 3 3 4 3 2 2 3 3 3 3 1 1 2 5 5 5 6 7 12 13 13 14 15 16 17 18 18 18 19 19 19 19 19 19 19 19 19 20 20 20 20 20 20 20 21 20 20 21 20 21 21 22 22 22 22 23 23 22 23 24 24 25 26 26 29 28 29 29
4 9 9 3 4 1 3 4 4 3 5 2 5 6 5 4 6 6 6 5 1 4 3 3 3 1 3 1 1 1 3 3 4 4 3 4 5 4 3 2 1 3 3 4 4 4 6 11 12 12 13 14 15 17 17 18 18 19 19 19 19 19 19 19 19 19 20 20 20 20 20 20 20 20 20 20 20 20 20 20 20 21 22 22 21 21 22 22 23 24 24 26 27 27 28 28 28
2 1 4 6 6 1 3 5 5 4 3 3 4 6 6 6 6 7 7 4 3 1 2 2 1 1 4 3 2 4 1 3 4 3 4 6 5 5 4 3 2 3 3 3 3 4 6 10 11 12 13 14 15 16 17 18 18 19 19 19 19 19 19 18 19 19 20 20 20 20 20 20 20 20 20 19 19 19 20 20 20 20 21 21 21 21 22 22 22 23 24 24 26 26 27 26 30
2 3 3 1 4 2 5 5 5 1 4 2 3 3 6 6 7 7 7 6 4 4 5 2 2 3 2 1 2 5 2 4 1 3 5 6 6 6 5 3 2 2 2 1 1 2 3 8 10 11 12 13 14 16 16 17 17 18 18 18 19 19 19 18 18 18 19 19 19 19 20 20 20 20 20 19 19 19 19 20 20 21 20 21 20 21 21 20 22 23 23 23 23 26 26 28 25
7 4 1 1 4 2 4 3 3 2 2 2 2 3 2 6 7 6 7 4 2 2 5 5 2 3 3 3 4 4 4 5 4 5 6 7 7 7 4 4 2 2 1 1 1 2 3 6 8 9 11 12 13 14 15 16 17 17 18 18 18 18 18 18 18 18 18 18 19 19 19 20 20 20 19 19 19 19 19 20 20 20 21 20 20 20 20 21 21 22 22 22 23 22 25 24 26
4 4 2 3 2 5 3 3 3 3 3 3 2 4 6 6 7 3 3 5 5 3 4 2 2 6 2 4 3 5 5 9 8 7 8 8 7 7 5 4 3 2 3 1 1 1 2 2 5 7 8 10 11 12 13 14 16 16 17 17 17 18 17 17 17 18 18 18 18 18 19 20 20 19 19 19 18 18 19 19 20 20 20 19 20 20 19 20 20 19 20 21 21 21 21 23 22
2 3 1 2 3 3 1 4 2 4 4 3 3 3 3 7 6 5 4 1 3 4 5 4 5 8 3 3 3 5 4 9 10 11 10 9 7 7 6 5 4 4 3 3 1 0 0 1 2 5 6 8 9 10 11 12 14 15 16 16 16 17 17 17 17 17 17 18 18 18 18 19 20 19 19 19 18 18 19 19 19 19 19 19 20 20 19 19 20 21 19 19 20 21 21 21 22
1 2 2 1 2 2 2 4 5 4 4 4 6 6 4 7 6 4 7 6 7 6 6 10 0 3 5 2 3 4 6 9 11 8 10 9 7 7 5 4 5 5 5 3 3 1 1 1 1 1 2 5 6 8 9 10 12 13 14 15 16 16 16 16 16 16 17 17 17 17 17 18 18 18 18 18 17 17 18 18 19 19 18 18 19 19 19 19 20 19 20 20 19 19 20 20 21
3 2 2 2 2 1 3 4 4 4 5 8 7 6 6 7 9 5 6 4 5 6 7 10 3 4 4 4 3 3 8 11 10 8 10 8 7 6 6 5 5 6 6 5 3 2 2 2 2 2 1 1 1 4 6 9 10 11 12 13 14 14 15 15 15 15 16 16 16 16 16 15 16 17 17 17 17 17 18 18 18 18 18 18 18 18 18 19 19 19 19 19 19 19 19 19 19
1 0 1 1 1 2 3 3 4 5 5 6 5 8 8 5 6 3 4 7 8 9 4 3 3 3 7 1 4 4 6 10 11 9 8 9 6 6 7 6 6 7 7 6 5 3 2 3 3 3 2 1 2 1 2 6 8 10 10 12 13 13 14 14 14 14 15 14 14 14 14 13 13 14 15 15 15 16 16 17 17 18 18 18 18 17 17 18 17 18 17 18 19 18 18 18 19
3 1 4 4 3 2 1 3 5 6 2 8 7 10 7 2 0 3 7 8 5 6 4 2 3 4 1 9 3 4 4 6 11 10 8 8 7 7 7 6 7 7 7 7 5 4 3 3 4 4 3 2 3 3 4 4 6 8 9 9 11 12 13 13 14 13 14 13 13 13 12 12 10 11 12 13 14 14 14 16 17 17 17 17 18 16 17 17 17 16 16 17 17 17 17 17 18
3 3 2 3 3 3 4 2 0 3 2 6 6 4 8 3 2 4 2 3 2 1 3 5 7 5 3 4 5 6 3 2 10 10 8 9 8 7 7 8 8 8 7 7 6 5 4 4 4 4 4 3 2 4 4 5 5 7 7 8 9 10 11 12 12 12 12 10 11 11 12 10 9 8 10 10 13 12 13 13 16 16 16 16 17 16 16 17 16 15 15 16 15 15 16 16 16
1 3 2 1 2 4 5 4 7 2 5 5 6 8 9 6 4 2 2 2 5 4 7 5 9 3 7 1 4 3 2 4 9 10 9 8 7 7 7 7 7 7 6 7 7 5 5 5 6 5 5 3 3 3 3 4 4 6 6 6 7 8 9 10 10 10 9 9 9 10 10 8 8 7 8 8 11 10 13 13 14 15 15 15 15 14 15 16 15 15 15 14 14 14 14 14 14
3 0 0 1 3 4 4 5 6 2 1 7 9 10 8 6 5 3 2 6 7 4 7 7 8 10 10 4 1 2 1 7 11 11 10 9 8 8 8 8 8 8 7 6 7 7 6 6 6 6 5 3 3 3 2 2 4 5 5 6 6 7 7 8 8 7 8 7 9 8 8 7 7 8 8 8 9 12 12 12 12 13 14 13 13 12 13 13 13 14 13 13 13 12 12 6 8
2 2 1 3 1 3 1 3 5 2 3 7 8 8 8 2 7 6 6 6 8 9 11 9 11 13 13 12 10 5 4 8 11 13 13 14 10 11 9 7 9 8 7 6 6 8 7 6 6 6 5 4 4 4 2 3 4 4 5 5 5 6 6 6 7 6 7 7 7 8 7 7 8 8 7 7 8 12 11 11 11 11 11 10 10 11 10 10 11 11 11 11 11 10 5 5 6
3 3 1 2 3 4 2 1 5 2 3 7 7 5 5 2 3 6 6 3 4 11 8 8 11 15 15 14 10 8 8 9 12 13 15 15 13 12 11 11 9 9 9 7 7 4 6 6 7 5 5 4 4 4 3 4 4 4 4 4 5 5 5 5 6 6 5 6 6 7 7 7 7 8 8 10 10 9 9 12 11 9 8 7 7 8 7 6 9 6 6 8 6 5 4 4 4
2 2 2 3 3 4 2 1 2 1 2 4 7 4 6 4 4 6 2 6 11 12 12 11 12 14 13 11 11 9 10 11 12 14 14 15 14 11 11 11 10 8 7 6 5 7 7 8 6 6 5 4 4 4 4 4 3 4 4 4 4 4 4 5 5 5 5 5 6 6 8 8 7 8 8 8 9 9 9 9 8 7 6 7 7 7 6 6 6 5 4 5 4 5 5 4 4
3 4 3 4 2 1 3 1 3 2 1 5 5 7 5 5 3 9 8 9 9 3 5 11 14 11 8 7 9 9 11 12 13 14 16 16 15 14 11 10 9 8 4 6 9 8 8 7 7 5 5 5 4 4 4 3 3 4 4 4 4 5 4 5 5 5 5 5 6 6 8 8 8 8 8 9 9 9 8 8 7 6 6 6 6 6 6 6 6 5 5 5 4 4 5 5 4
2 1 1 0 2 2 3 2 2 1 3 5 5 2 3 5 5 8 11 17 7 5 4 2 5 7 2 1 6 10 12 13 14 16 16 15 15 15 13 11 10 10 9 10 9 8 7 6 6 6 5 5 5 4 3 3 4 3 3 3 4 4 4 5 5 5 5 6 6 6 7 8 8 8 8 8 9 8 7 8 7 6 7 6 6 6 6 6 5 5 5 5 4 4 5 5 5
2 5 2 3 1 3 2 3 1 2 1 1 2 1 5 3 9 2 12 16 15 3 1 0 1 3 2 6 7 11 12 13 15 15 15 15 15 16 14 12 11 10 9 11 9 8 7 8 7 7 6 6 5 4 4 4 3 3 3 3 3 2 4 5 5 5 5 5 5 6 6 7 8 8 8 8 8 8 8 8 8 7 6 6 6 6 6 6 6 6 5 5 5 4 4 5 5
4 4 1 3 2 3 2 3 2 1 3 1 2 4 5 5 6 3 14 15 14 11 5 3 2 2 3 8 9 10 11 12 14 13 11 11 12 12 12 10 10 8 11 11 9 9 9 7 7 8 7 7 6 5 5 4 3 3 3 3 3 2 4 4 4 5 5 5 6 5 6 7 7 7 7 7 7 8 8 8 7 7 7 6 6 6 6 6 6 6 6 5 6 5 4 5 5
4 4 4 3 3 3 2 3 2 2 1 1 4 8 4 1 3 12 21 16 10 9 7 9 7 7 8 9 10 10 12 14 13 12 14 11 10 11 14 12 10 12 13 11 10 10 9 7 8 9 8 7 6 5 5 4 4 4 4 3 3 3 4 3 4 5 5 5 5 4 6 6 7 7 7 7 7 8 8 8 8 7 6 6 6 6 6 6 6 6 6 6 6 5 5 4 6
2 7 4 4 2 1 2 1 2 1 1 1 5 9 4 3 1 10 3 2 2 3 8 7 8 12 12 9 8 9 12 14 13 11 9 10 11 13 14 12 13 14 11 13 11 10 7 7 8 9 9 8 6 6 6 6 5 5 4 3 3 3 3 4 4 5 5 5 5 4 6 6 6 6 7 7 7 7 7 7 7 6 6 6 5 6 5 5 6 6 6 7 7 6 6 5 5
5 7 7 5 3 2 2 2 1 2 1 0 4 11 3 2 2 13 6 4 1 4 7 8 8 10 9 10 9 9 10 10 9 9 14 14 12 12 13 12 14 13 13 14 12 9 8 9 9 9 9 8 8 7 6 6 5 5 4 3 4 3 3 5 5 5 6 5 5 5 5 5 6 6 6 6 7 7 7 7 7 6 6 5 6 6 5 5 6 6 6 6 6 6 6 5 5
3 2 2 1 1 4 2 2 1 1 1 1 3 12 9 8 10 16 3 2 1 4 7 7 8 9 9 8 8 8 10 9 8 10 14 13 11 10 13 13 13 12 11 13 12 9 11 8 9 9 9 8 9 8 7 6 5 4 4 4 4 3 4 4 5 5 5 6 5 6 5 6 6 6 6 7 7 7 6 7 7 6 6 5 5 5 6 7 6 6 6 6 6 7 6 6 5
2 4 2 2 4 4 3 2 1 3 1 2 4 8 2 11 15 7 4 3 2 3 7 7 7 7 7 8 8 9 9 9 11 13 12 11 12 12 14 13 12 12 10 8 10 12 9 5 6 6 8 9 10 8 7 6 6 5 5 4 4 4 4 4 5 5 5 6 6 6 6 6 6 6 7 7 7 7 6 6 5 5 5 4 5 5 6 5 6 6 7 7 6 7 7 7 6
2 1 2 1 5 1 2 1 2 4 2 2 4 5 9 3 7 8 3 2 4 8 8 7 6 6 7 7 7 8 10 11 13 13 14 14 12 10 14 13 13 13 10 10 13 13 10 9 6 6 8 10 9 9 9 8 6 6 5 5 4 5 4 5 5 5 5 5 6 6 6 6 7 7 7 7 7 7 7 6 5 5 4 4 5 5 5 6 6 6 6 7 7 7 7 7 7
1 2 1 2 2 1 4 2 2 3 2 1 3 7 9 6 1 6 3 2 4 8 9 10 7 7 6 5 7 8 10 9 12 14 15 15 14 13 13 15 13 13 14 13 12 11 12 12 10 10 10 11 11 10 9 8 7 6 6 5 5 5 5 5 5 6 5 5 6 6 7 7 7 8 8 7 7 7 6 6 6 5 5 5 6 5 5 7 6 6 6 6 7 8 8 8 8
1 1 3 3 2 4 5 4 1 2 1 3 5 9 14 10 3 3 4 4 4 7 10 9 10 10 8 7 7 8 10 11 11 14 15 14 13 12 12 14 13 15 14 14 14 12 13 13 11 13 13 13 12 11 10 9 7 7 7 6 6 5 5 5 5 5 5 6 5 6 6 7 8 8 8 8 7 8 7 7 6 6 6 6 6 6 6 6 6 6 7 7 7 8 8 10 9
1 1 2 2 4 6 5 5 3 1 1 4 6 8 17 16 10 4 7 6 5 10 14 13 11 10 10 9 9 11 11 11 13 13 14 12 10 13 13 13 14 14 14 15 14 14 14 12 11 12 11 12 10 10 9 8 8 7 6 6 6 6 7 6 6 5 6 6 6 6 6 7 8 8 8 7 7 7 7 7 7 6 6 6 7 7 7 6 7 7 8 7 7 8 8 9 10
6 5 5 4 3 6 8 8 3 2 3 6 9 13 22 21 17 15 12 7 7 13 13 13 12 10 9 9 9 11 11 12 14 12 9 8 10 11 11 12 13 13 12 14 14 14 12 12 11 11 11 11 11 9 9 8 8 7 6 6 7 7 7 7 6 6 6 6 6 6 6 7 7 8 8 8 7 7 7 7 7 7 7 7 7 8 8 8 8 8 8 8 8 8 8 9 10
3 3 4 5 7 6 5 4 3 2 8 9 10 12 17 20 18 15 9 7 10 12 11 10 10 9 9 9 9 9 9 12 13 11 9 9 9 10 9 9 10 10 11 12 14 13 14 13 12 10 11 11 10 9 8 7 7 7 7 7 7 8 7 7 7 7 6 6 6 6 6 7 7 7 7 7 7 7 7 7 7 7 7 7 8 9 8 8 9 8 9 10 10 9 8 8 8
3 2 3 5 7 11 5 4 2 1 5 11 10 12 19 21 18 16 11 6 8 9 9 9 8 7 7 7 8 9 10 12 9 8 10 11 11 10 9 9 10 11 13 14 13 14 14 13 11 14 11 11 10 9 9 9 9 8 8 9 8 7 7 7 7 7 7 6 6 7 7 7 7 8 8 7 7 7 7 7 7 7 7 8 8 9 9 10 8 8 9 8 9 10 9 9 8
1 2 3 5 5 7 4 2 3 1 3 6 5 12 21 20 14 10 6 3 7 8 7 8 8 6 6 7 8 9 9 8 10 11 11 9 9 10 9 9 10 12 13 11 14 14 13 13 15 14 10 12 12 12 10 10 10 9 8 8 7 7 7 7 7 7 7 6 7 7 7 7 8 8 7 8 7 7 7 7 7 8 7 7 8 8 9 9 9 9 7 8 8 9 9 7 7
2 3 3 3 2 6 7 1 3 3 3 11 4 12 19 20 11 9 3 5 3 2 4 5 4 5 5 6 7 8 7 10 9 11 11 9 10 9 8 9 10 12 13 12 13 13 14 12 13 13 12 11 12 12 11 11 10 9 9 7 7 6 6 6 6 6 6 7 7 7 8 8 8 8 8 8 7 8 8 8 8 7 8 7 7 8 8 9 9 10 9 8 8 8 8 6 7
3 3 2 4 3 5 4 3 0 4 4 9 10 11 16 14 5 1 1 2 3 4 5 7 6 7 8 7 5 6 9 9 10 10 10 10 7 7 7 8 9 8 10 11 12 13 11 12 13 13 12 12 11 12 12 11 10 8 8 7 7 7 6 5 7 7 8 9 9 8 8 8 9 9 9 9 8 8 8 8 8 8 8 8 8 8 8 9 8 8 8 8 8 9 8 7 4
4 5 4 4 4 3 4 6 8 13 4 3 11 11 8 1 3 3 2 2 4 5 5 7 8 10 9 8 9 10 12 10 9 11 11 9 8 8 8 8 6 8 10 12 11 10 8 12 12 12 12 12 11 11 12 10 8 7 6 6 6 6 7 8 8 9 9 9 8 8 9 9 9 9 9 9 9 9 9 8 9 9 8 8 7 8 8 8 8 8 8 7 8 8 8 7 6
3 6 6 3 2 6 6 8 11 6 4 3 9 9 0 2 4 5 0 1 3 3 3 6 7 8 6 9 11 9 9 10 10 11 11 11 11 12 12 10 9 9 11 11 8 10 10 10 11 11 10 11 11 12 12 10 10 10 9 9 9 9 9 9 11 10 9 9 9 7 8 8 9 9 9 9 10 9 9 9 10 9 9 8 8 7 7 7 8 8 8 7 8 8 7 7 7
4 1 3 1 1 3 7 8 7 5 6 2 1 4 6 2 6 3 2 3 4 2 4 6 3 5 5 7 7 7 7 7 5 7 9 10 12 11 12 12 10 10 11 8 8 9 11 12 11 11 10 10 10 11 13 11 11 11 13 12 11 10 10 10 9 8 8 7 6 8 7 8 10 10 10 10 10 10 10 9 10 10 9 8 8 7 8 8 8 8 7 8 7 6 6 7 6
3 3 4 2 2 6 6 4 2 7 5 6 1 3 5 8 3 4 2 4 5 4 4 5 4 5 6 5 5 6 6 5 5 8 9 9 9 10 11 12 12 11 11 8 9 9 11 12 11 11 10 10 10 9 12 13 12 12 13 14 11 12 12 11 8 8 7 7 7 8 8 8 9 10 10 10 10 10 10 10 10 10 9 9 8 8 8 8 7 7 8 8 7 6 7 7 6
2 3 0 3 3 4 3 4 5 3 4 2 3 3 4 5 2 4 1 3 2 2 3 2 3 3 3 4 4 5 5 5 4 6 9 10 11 11 11 11 13 13 10 9 10 10 9 10 10 11 12 11 11 11 11 13 13 12 12 11 12 11 11 10 8 7 7 8 9 8 8 8 8 10 10 10 10 10 10 10 11 11 10 9 8 8 8 8 9 8 8 8 8 7 7 7 6
3 4 3 3 3 2 2 3 3 2 2 4 4 2 4 9 3 1 2 1 1 0 0 3 2 3 4 4 5 4 3 4 4 5 7 10 11 11 11 11 12 10 8 8 9 9 9 9 10 11 14 11 11 12 13 14 15 12 12 13 15 12 10 9 9 9 9 9 10 10 9 8 8 8 10 11 11 11 11 11 11 12 11 10 9 9 9 9 9 9 9 9 8 8 7 7 7
3 3 5 4 3 2 2 0 1 1 3 1 5 1 3 6 3 3 2 3 3 2 1 1 2 3 4 4 4 4 6 7 6 8 9 10 10 11 10 10 11 10 7 7 8 8 9 9 9 11 14 11 11 12 13 15 14 14 14 15 16 15 13 11 10 11 10 10 10 10 9 9 8 9 8 9 11 11 11 12 12 11 10 10 9 10 9 9 9 9 9 10 10 9 8 8 8
3 3 3 7 4 3 3 1 2 2 3 6 1 2 3 5 3 1 1 1 0 0 2 6 7 9 8 7 7 8 8 7 8 9 10 11 12 12 12 14 15 14 12 10 7 6 7 8 9 12 13 13 12 11 12 14 13 15 15 16 16 15 14 11 13 13 12 12 11 10 9 8 9 8 9 9 10 11 11 11 12 12 11 10 11 9 9 9 9 9 8 8 9 10 9 8 8
3 4 4 5 5 3 2 3 3 2 4 4 2 3 5 11 10 11 10 8 6 3 5 5 8 11 13 13 13 9 8 8 8 9 10 10 11 13 14 15 14 13 12 13 13 9 8 8 10 11 14 13 12 12 13 15 15 15 16 16 16 13 15 15 14 13 12 11 10 10 10 9 8 9 9 10 10 12 11 11 12 12 11 11 11 10 10 10 9 9 9 9 9 9 9 10 8
3 4 2 4 6 4 6 4 2 4 3 2 3 4 6 10 9 6 7 7 6 3 2 7 7 8 10 10 10 9 9 9 9 9 10 11 11 12 13 13 12 11 12 13 13 10 8 7 9 10 14 13 11 12 13 14 16 17 15 15 14 13 14 14 14 13 13 11 10 11 11 10 9 10 9 10 9 11 11 12 12 12 12 11 11 11 11 10 10 9 9 10 10 9 9 10 10
1 2 3 1 1 3 7 4 7 6 6 1 3 1 4 2 2 2 4 7 7 4 4 3 4 4 5 6 7 8 8 9 9 10 11 13 14 14 13 12 12 12 14 14 14 13 11 9 9 11 13 13 12 13 12 15 15 16 16 15 15 13 14 13 13 12 12 12 11 11 10 9 9 9 9 9 10 11 12 12 12 12 12 12 11 11 10 10 10 10 9 10 9 9 9 9 9
3 1 2 2 1 1 7 3 4 4 4 6 4 4 0 2 5 7 2 4 3 3 4 2 6 2 3 5 6 9 10 11 12 13 14 14 13 12 12 13 14 14 16 16 17 17 16 15 12 12 13 14 12 12 13 13 15 14 15 17 17 16 13 13 12 12 12 12 12 11 11 10 9 9 9 9 10 11 12 12 12 13 12 12 12 12 11 10 10 10 10 9 10 8 9 11 9
2 3 2 2 3 2 2 2 2 1 3 7 2 7 4 5 6 2 1 6 9 8 10 10 9 7 9 10 11 11 12 12 13 15 15 17 15 14 12 14 15 16 17 17 17 17 17 17 15 16 14 13 12 12 13 13 13 14 16 16 16 16 17 17 15 15 14 12 12 11 11 10 10 9 9 9 10 11 11 12 12 12 12 12 12 12 11 11 10 10 10 10 10 9 9 10 9
1 3 2 4 1 3 1 4 1 3 6 5 2 8 8 5 4 3 8 11 11 14 15 15 14 13 14 12 13 14 15 16 17 17 16 16 15 14 14 14 16 16 16 17 17 16 13 13 13 15 15 15 14 12 12 12 13 14 15 16 17 18 16 17 16 15 13 12 12 11 11 10 11 9 9 9 10 11 12 13 12 12 12 12 12 12 12 12 11 10 10 10 10 9 9 9 9
3 2 2 3 1 2 3 1 5 5 6 5 4 7 7 3 6 3 9 11 11 14 15 17 17 16 14 16 17 17 17 17 17 17 17 15 13 13 15 16 17 17 17 16 14 13 12 13 14 13 14 14 15 12 11 10 11 11 11 14 16 16 16 15 15 14 13 13 14 12 12 11 10 10 10 10 10 11 11 12 12 12 11 12 12 12 12 12 12 11 10 10 10 10 9 9 9
3 2 2 2 2 5 3 1 3 1 9 4 4 4 9 5 1 4 8 8 11 13 12 14 14 14 14 14 16 16 17 17 17 16 16 14 12 13 16 17 19 18 17 16 17 15 16 14 12 13 13 13 12 12 12 12 13 12 13 13 14 15 15 15 15 14 14 15 14 13 12 12 12 10 10 11 11 11 12 12 12 12 12 12 12 12 12 12 11 11 10 10 10 11 11 10 9
3 3 1 2 0 2 2 1 3 4 7 6 7 8 3 3 2 3 5 7 9 10 12 13 13 15 16 16 16 17 18 17 16 16 15 13 12 14 16 17 17 17 15 15 16 17 16 17 16 14 15 14 15 15 13 13 12 13 14 16 16 15 17 15 15 15 15 15 13 12 11 10 9 11 10 11 11 12 12 12 12 12 13 12 12 12 11 11 12 11 11 10 10 10 11 10 9
2 4 3 3 3 2 2 6 4 1 3 6 3 11 6 2 2 1 3 5 7 12 16 16 17 19 19 16 17 18 18 18 17 16 13 10 12 14 17 16 15 15 16 17 17 17 20 19 20 18 13 11 12 13 13 13 12 12 14 15 16 15 14 14 15 16 16 14 12 11 11 10 11 11 11 11 12 11 11 12 12 13 13 13 13 13 12 11 12 12 12 9 10 11 11 11 10
Wind_Direction
322 339 14 61 254 250 328 353 242 31 105 78 111 205 90 328 106 165 149 168 196 82 68 67 46 56 345 41 46 56 29 326 32 291 17 86 115 70 49 20 17 9 7 6 356 1 5 17 12 10 10 10 11 11 10 10 9 8 8 7 7 6 6 7 5 8 8 7 7 6 10 10 10 10 12 11 10 8 7 3 2 359 357 357 357 355 356 358 358 357 1 1 0 0 0 3 1
344 286 79 77 28 270 57 308 91 124 98 103 76 55 117 137 196 185 148 169 41 126 152 101 73 63 52 42 50 105 97 41 15 57 106 75 158 99 54 29 14 15 10 6 9 9 8 15 11 11 10 10 11 11 11 11 9 8 7 7 5 4 4 5 4 5 6 6 5 5 5 8 8 8 11 10 9 11 6 4 3 360 358 355 355 353 355 354 355 355 357 359 359 359 360 1 359
347 309 223 238 49 43 115 305 147 128 138 111 123 109 123 176 182 138 92 104 113 113 141 264 337 337 238 188 214 313 101 180 119 101 84 130 177 129 93 40 19 15 17 16 11 14 9 12 9 11 11 11 12 12 11 11 10 8 8 7 6 4 4 4 3 3 4 3 4 5 5 5 6 6 7 7 8 8 5 5 4 2 359 355 353 354 352 352 354 351 355 356 356 355 0 358 360
270 25 320 282 101 259 41 50 73 146 113 97 136 150 192 179 141 104 93 107 127 139 5 146 249 70 290 235 43 217 107 167 156 137 136 169 57 109 100 64 27 28 35 28 17 11 16 7 9 11 12 13 11 13 12 11 11 9 9 8 7 5 4 5 3 3 2 3 3 3 6 6 5 5 6 6 5 7 5 4 4 3 2 356 353 353 354 349 350 351 352 354 352 355 356 355 0
66 37 2 13 256 56 53 47 78 263 126 171 124 150 174 174 124 131 128 134 145 215 323 33 245 94 354 345 131 287 93 84 169 210 92 103 117 116 127 103 80 65 46 34 20 12 15 8 7 11 12 12 12 12 12 12 10 10 9 8 7 6 5 6 5 4 3 4 4 3 5 5 5 2 3 5 4 7 4 3 3 1 1 359 356 353 353 353 351 350 352 349 352 357 352 357 357
48 62 32 43 62 63 171 139 118 77 47 11 132 154 160 145 145 146 140 168 213 263 300 265 314 120 212 144 317 283 131 190 105 175 183 138 152 154 145 160 113 65 54 47 29 21 12 7 7 11 13 12 11 11 11 10 11 10 10 9 8 7 6 7 6 6 6 6 5 5 6 5 3 2 2 5 5 5 6 3 3 1 360 359 356 355 353 354 352 351 352 344 349 353 355 351 357
273 177 50 103 101 255 62 97 104 110 94 329 70 139 162 147 136 149 153 175 205 274 180 246 154 178 228 135 212 237 280 68 174 142 199 125 159 164 163 164 156 93 70 49 38 28 22 2 9 11 11 12 13 12 11 12 12 10 10 9 8 7 5 7 8 7 7 7 7 6 7 5 3 1 2 3 4 5 2 4 2 1 1 357 358 357 356 353 351 351 346 348 345 342 356 353 356
93 256 5 81 63 33 73 86 106 13 125 276 12 141 142 151 148 175 170 212 160 214 158 149 212 287 29 286 271 107 152 213 318 130 147 155 159 166 180 179 173 114 101 93 59 43 21 13 10 10 12 15 14 13 13 12 12 10 9 9 8 7 5 6 7 8 8 8 8 8 7 6 4 2 2 1 4 5 4 3 1 2 359 358 359 356 355 353 354 350 347 346 340 346 345 350 350
35 59 238 195 79 97 108 75 91 6 104 197 167 21 81 152 167 175 179 198 82 238 163 172 165 241 98 177 239 106 193 181 185 162 172 168 172 170 176 188 193 141 156 165 103 47 35 22 7 9 15 15 15 13 12 13 10 9 7 8 6 6 4 4 6 7 7 8 8 9 7 7 5 4 3 1 5 7 4 4 0 2 359 359 358 358 354 353 354 348 346 339 341 338 345 346 353
70 338 94 65 153 95 118 131 179 139 158 152 183 176 168 159 169 208 207 203 213 164 162 123 187 264 41 241 205 176 186 172 175 180 184 180 176 176 180 181 181 183 193 192 171 71 63 4 5 14 16 17 15 14 12 10 9 8 6 5 4 3 3 2 3 5 5 6 7 6 6 5 4 4 3 2 6 6 4 4 1 1 360 359 358 357 359 353 348 348 343 341 338 342 342 348 344
71 55 11 194 101 129 165 145 179 142 181 158 215 185 187 180 187 206 212 246 131 193 150 173 217 230 221 236 254 72 107 165 180 191 182 182 180 187 187 182 192 214 214 207 195 210 55 54 340 16 18 19 14 15 12 10 6 6 4 3 1 1 360 358 0 2 2 2 2 3 4 4 2 1 2 0 6 6 5 4 1 0 1 360 357 358 356 353 349 347 342 344 340 342 345 345 348
200 13 228 127 83 356 105 143 163 145 152 189 201 171 175 183 187 207 199 219 185 201 199 179 155 139 201 243 191 144 153 189 196 186 177 180 188 191 198 191 202 215 229 222 204 189 284 260 259 74 16 17 20 17 13 10 6 4 3 0 359 358 356 354 355 358 358 358 357 359 1 2 360 358 359 359 4 6 5 4 360 359 359 359 357 357 355 351 351 346 346 342 343 341 343 346 349
61 247 89 103 53 298 84 141 153 151 190 211 187 170 153 176 194 213 196 209 180 192 216 199 66 229 234 210 80 155 198 200 194 181 176 183 191 191 203 213 215 224 224 229 230 221 221 268 262 294 17 322 33 13 20 11 5 1 0 358 355 353 351 349 349 351 352 353 352 353 354 357 355 355 355 354 1 4 4 3 359 357 356 357 356 358 352 351 349 347 347 344 339 344 341 344 347
86 35 343 96 305 124 160 83 131 190 207 142 127 136 170 189 218 245 175 206 195 211 74 144 178 188 261 307 192 211 209 181 186 180 181 190 193 202 209 221 224 233 229 227 231 219 237 270 287 279 288 301 350 317 30 20 4 356 356 353 350 347 344 343 342 344 344 346 345 345 347 349 347 348 351 351 356 1 2 360 358 353 354 354 353 355 352 349 347 348 347 343 342 342 343 345 345
107 213 81 106 120 192 182 183 184 209 122 147 135 152 172 230 122 190 215 240 197 68 110 183 186 182 183 194 168 150 80 169 179 178 186 194 203 215 222 227 237 237 238 233 237 235 254 268 275 275 268 305 334 342 346 355 4 346 344 345 342 339 337 337 335 337 336 338 337 339 337 335 333 336 345 345 351 355 359 356 355 350 351 351 350 351 351 346 347 347 347 341 344 344 344 346 346
110 159 103 149 152 229 158 218 167 215 137 155 140 153 178 131 209 201 216 326 51 120 181 192 200 234 356 237 66 78 49 179 176 179 187 199 213 226 230 236 239 236 236 238 235 228 235 251 275 281 292 303 321 334 327 333 344 337 325 331 332 332 331 332 331 330 331 330 333 330 329 317 320 325 335 338 348 348 352 351 349 346 345 348 345 349 347 345 345 347 346 343 345 347 349 347 344
305 258 163 116 171 217 141 196 168 213 93 131 136 171 189 187 166 280 15 280 241 191 205 214 196 233 240 255 77 35 34 165 171 177 193 207 212 225 227 228 232 235 230 230 231 232 224 240 256 271 276 290 304 312 316 322 317 313 312 317 315 324 326 328 326 323 330 326 333 330 318 318 321 323 326 338 337 342 339 341 341 340 339 341 342 346 343 343 345 347 346 348 352 352 351 349 346
255 146 283 221 63 198 152 187 178 24 137 156 176 189 198 199 169 180 168 226 236 232 234 228 237 245 244 240 148 54 112 171 178 184 201 210 212 223 223 224 223 229 226 226 221 221 225 231 242 256 273 277 295 293 296 293 302 294 313 315 320 326 326 326 322 332 327 331 334 330 323 321 325 322 320 333 331 331 325 329 330 330 332 332 337 339 338 340 345 347 348 352 356 353 357 355 347
22 140 263 359 159 58 329 82 120 159 79 156 170 184 214 205 163 163 218 207 206 237 238 228 239 243 238 237 232 235 177 189 185 199 207 211 212 219 223 222 223 230 231 234 234 221 219 228 233 249 254 280 288 282 282 289 294 308 309 317 315 316 325 321 324 327 331 336 336 328 322 329 326 317 321 325 315 312 311 322 319 322 322 327 332 330 329 337 342 346 349 353 356 353 358 351 346
42 289 331 57 54 67 76 317 127 23 125 141 161 183 220 130 186 126 231 251 184 234 236 203 232 244 231 226 201 204 200 202 198 205 214 217 219 222 226 228 228 227 233 239 248 209 213 224 235 232 245 255 271 288 291 296 302 310 310 320 321 324 326 324 323 325 329 336 336 324 327 324 320 314 317 312 309 313 321 318 313 304 301 314 331 316 317 329 332 331 340 345 348 347 353 349 341
27 267 31 97 136 138 123 239 101 119 290 141 152 110 210 204 192 193 226 254 238 239 237 234 226 230 237 218 190 187 199 204 205 212 219 223 224 226 230 230 234 235 237 239 238 240 226 228 230 228 227 244 254 272 278 285 312 297 306 312 320 321 322 320 318 323 323 333 333 324 324 314 313 313 316 318 315 315 314 311 310 310 315 315 319 310 315 328 325 333 333 342 346 345 343 341 337
76 41 21 93 138 115 89 71 71 121 342 124 136 169 201 95 195 223 217 238 266 241 238 228 246 252 250 186 194 189 202 207 208 211 219 221 222 224 227 235 238 246 243 242 243 244 234 226 223 234 224 237 246 265 275 290 261 286 308 311 316 320 312 313 311 320 319 329 329 323 315 314 314 314 315 315 316 313 311 311 307 305 305 299 302 308 315 319 320 324 329 338 339 347 340 337 331
118 99 114 328 345 30 73 116 101 212 150 153 171 194 96 200 236 217 227 233 247 68 72 302 265 269 286 346 185 199 206 211 210 214 216 220 226 228 230 230 233 235 235 242 243 245 245 217 211 218 234 240 235 243 258 254 269 281 290 306 314 306 314 306 309 313 323 319 316 318 320 317 314 313 315 315 313 315 311 310 307 302 298 293 296 301 305 306 312 316 325 330 333 333 336 335 321
343 125 152 68 325 65 28 72 114 8 266 126 56 63 231 161 265 152 233 236 246 129 127 49 325 315 255 218 209 211 210 213 217 219 218 221 223 225 226 230 233 240 243 245 238 240 232 223 218 212 229 232 243 220 235 248 249 263 273 268 261 312 293 297 302 314 313 304 310 320 318 315 313 314 313 313 313 312 311 309 303 293 285 288 288 293 296 300 306 310 314 320 317 330 326 329 323
87 111 171 103 72 60 65 101 89 68 83 117 229 231 242 225 280 11 254 249 239 234 175 211 235 239 219 227 223 220 223 224 226 225 225 231 233 238 239 239 239 238 243 243 244 244 235 223 217 220 225 227 232 224 232 239 241 245 254 264 279 283 284 293 304 302 296 307 306 308 324 315 314 310 311 312 312 308 309 306 301 290 284 281 284 283 291 293 301 305 308 315 318 320 324 325 326
27 79 114 109 87 76 70 127 93 50 109 198 245 253 234 193 317 257 258 263 257 234 217 231 233 243 228 225 227 222 225 226 226 225 225 228 234 237 238 237 237 240 240 246 245 243 240 220 218 221 221 223 221 213 236 231 228 237 235 249 275 268 275 287 290 287 298 296 301 310 318 312 309 311 308 311 308 308 304 304 292 281 272 274 279 281 289 295 297 303 303 306 313 311 316 317 324
103 102 92 102 73 130 72 291 87 26 7 112 277 278 266 113 236 283 141 28 50 207 236 228 228 241 240 231 227 228 232 232 225 229 235 232 234 232 238 237 235 239 240 241 241 242 235 221 221 222 222 216 213 220 225 234 227 240 238 249 245 262 269 276 278 287 287 290 296 306 302 303 305 302 307 306 305 303 303 301 296 285 273 270 272 283 284 289 293 293 305 306 310 310 310 315 312
93 119 118 90 110 87 99 86 62 289 201 64 279 275 251 131 182 252 247 133 140 242 234 223 225 240 244 237 232 235 238 243 238 228 234 230 228 228 232 229 234 236 236 239 239 240 238 228 228 225 220 211 213 220 222 229 231 233 236 238 249 246 254 274 277 282 281 287 289 286 293 299 303 294 295 301 301 300 297 298 296 282 274 275 273 276 286 288 293 292 291 291 294 294 299 304 309
111 264 214 111 124 215 128 237 67 270 266 332 281 277 233 182 228 237 239 104 157 247 258 238 233 240 243 240 237 237 239 241 234 233 236 237 240 234 238 230 234 238 238 241 239 235 235 233 231 227 216 213 214 220 222 224 224 221 228 233 243 224 251 261 271 275 279 283 281 279 286 290 289 291 289 294 296 294 293 294 289 281 272 274 276 275 274 274 272 278 284 286 288 294 293 296 299
223 69 358 235 209 222 100 114 126 241 86 311 285 314 116 201 223 219 134 148 163 248 254 242 237 238 240 236 238 245 244 239 236 236 240 238 238 239 241 240 234 236 243 240 232 234 233 222 217 223 217 216 217 221 221 221 216 219 223 229 229 228 249 252 261 267 272 279 279 279 278 280 285 284 284 286 289 289 288 285 280 277 271 270 267 269 265 269 278 285 287 286 288 291 296 300 303
254 47 266 345 315 92 115 155 95 241 73 297 290 286 289 140 191 222 121 200 238 266 268 255 237 239 243 241 242 249 249 238 243 244 243 242 243 242 244 247 240 237 241 241 238 238 227 220 209 220 211 220 213 218 218 222 219 217 222 220 227 224 245 250 257 263 266 271 275 278 275 277 280 277 276 280 279 281 280 276 270 268 268 274 272 268 273 277 277 277 286 291 293 290 291 297 298
8 256 147 161 315 36 154 108 191 277 104 247 278 265 268 297 265 127 103 168 211 255 260 263 255 249 248 253 256 256 258 250 249 249 247 245 241 243 241 244 241 240 238 240 243 238 234 228 215 222 219 219 216 216 216 218 219 219 221 220 230 215 239 245 251 257 262 266 269 271 271 271 273 274 268 272 272 272 274 273 270 267 266 266 266 267 264 267 272 278 280 284 288 290 293 294 299
38 4 300 322 317 321 300 113 90 349 318 188 250 279 305 299 87 104 140 158 204 258 263 259 259 260 263 262 263 267 274 267 253 248 246 240 240 238 242 244 241 239 240 243 240 240 238 234 220 224 225 219 217 213 212 214 217 219 218 220 220 220 233 240 243 249 253 258 261 265 271 269 270 268 262 262 265 265 264 266 264 262 261 264 264 263 264 267 269 270 275 277 284 289 290 291 292
120 121 316 310 302 323 315 125 121 61 246 263 207 245 257 268 266 224 166 193 229 262 269 264 260 261 261 267 266 268 270 274 268 257 250 239 238 237 240 245 245 244 245 244 243 241 244 239 228 222 226 220 217 212 210 209 214 218 219 219 218 226 228 234 241 240 246 252 255 259 261 262 264 262 256 255 260 262 262 262 263 262 260 259 260 260 263 267 268 272 274 274 280 284 286 292 295
321 338 327 323 271 211 275 297 70 305 181 252 265 252 268 271 274 276 271 225 237 261 267 272 273 270 269 266 267 267 268 267 266 264 261 251 246 246 247 248 248 246 243 244 242 241 242 241 235 225 218 217 214 210 206 211 215 218 222 221 224 228 228 231 233 237 240 247 248 253 255 257 255 251 249 250 252 255 257 258 258 258 257 259 260 259 260 259 260 264 270 276 276 275 282 289 290
317 297 312 293 305 307 293 301 69 348 291 274 251 260 282 288 292 290 282 241 241 261 266 268 267 265 264 261 263 263 261 266 263 271 269 259 254 256 251 248 246 245 244 244 241 239 238 238 235 230 220 214 208 207 201 208 209 214 218 217 224 225 226 228 223 228 238 241 242 245 251 252 251 247 243 244 248 252 256 256 256 257 255 256 257 257 257 258 258 258 264 270 273 276 273 278 283
90 161 241 273 284 285 275 263 75 36 281 260 262 278 284 284 287 290 294 281 258 258 256 254 257 255 254 255 255 259 260 260 280 286 276 267 263 254 252 251 252 252 248 243 242 238 233 232 228 229 218 207 202 202 205 204 207 212 218 223 229 222 223 219 224 228 228 233 236 238 248 249 243 238 238 240 241 246 250 254 254 254 253 252 253 255 257 261 264 267 269 270 274 277 277 277 278
306 269 260 296 248 281 312 271 107 186 314 288 288 296 286 284 292 295 301 253 253 240 240 249 251 251 257 258 265 261 265 284 282 282 274 265 256 252 247 247 245 249 247 238 235 238 236 230 228 232 217 207 208 209 207 207 211 212 213 219 221 228 220 220 230 225 222 225 228 235 241 242 235 231 232 234 236 242 247 250 250 251 251 251 252 256 260 259 260 261 261 266 261 266 272 279 282
174 278 304 280 274 274 265 62 159 187 276 280 326 310 294 292 308 305 277 245 266 279 252 261 275 263 261 251 255 271 277 275 283 273 277 271 260 254 248 248 247 243 258 249 243 239 236 230 229 227 220 210 210 208 208 213 210 213 214 225 219 229 226 234 241 239 233 233 232 227 234 236 232 228 224 228 235 241 244 247 249 250 248 248 251 251 248 248 252 254 254 259 272 266 269 270 268
236 245 268 306 13 345 320 146 111 205 215 292 319 296 279 298 310 353 73 256 292 291 268 263 258 263 251 256 275 276 276 275 274 278 284 285 274 265 251 250 251 250 252 252 247 241 236 233 231 223 222 216 211 208 209 215 214 209 212 226 227 228 240 231 232 237 236 234 234 228 228 226 227 226 221 224 230 233 238 246 250 248 246 242 245 250 248 250 248 249 248 250 256 268 264 265 247
199 240 263 274 295 292 225 312 321 288 257 282 272 256 258 251 178 180 157 209 266 262 249 249 247 247 262 284 279 253 257 263 271 281 281 280 290 281 269 265 260 253 254 254 247 240 233 236 232 224 223 220 216 210 206 204 201 200 202 212 223 237 240 239 239 239 227 227 230 225 224 220 222 220 220 224 228 234 239 243 245 246 243 240 240 243 246 244 245 246 248 252 252 261 270 271 267
275 204 229 281 275 278 285 304 321 302 226 132 347 335 239 142 247 247 46 219 242 164 235 240 230 234 233 253 255 260 246 250 261 275 286 302 303 305 305 294 277 271 268 263 263 258 253 252 242 233 228 225 220 213 203 198 204 205 200 204 213 214 228 220 222 222 217 213 216 217 214 211 217 217 219 222 226 233 238 241 242 241 236 233 232 239 243 244 241 243 244 244 247 245 262 272 266
291 99 185 181 245 284 294 312 327 309 315 59 293 293 289 158 269 250 63 314 286 193 232 262 240 233 221 241 253 259 260 271 262 267 285 295 298 303 301 302 297 281 275 276 270 261 259 257 254 242 237 236 228 217 200 200 209 211 212 214 217 221 228 231 223 222 218 221 219 219 216 216 215 219 220 221 227 231 237 238 235 232 231 230 231 234 238 238 241 240 238 236 240 243 240 251 253
267 76 146 128 259 293 310 306 262 273 314 284 163 250 282 300 286 73 30 305 282 275 241 242 244 246 238 240 256 266 280 289 308 309 305 300 296 299 302 305 303 300 301 294 282 276 265 260 251 247 242 239 234 221 207 207 212 213 213 218 221 229 230 237 225 218 217 218 219 218 219 219 217 221 223 222 224 228 231 232 228 227 226 228 229 230 234 236 236 233 234 235 235 239 239 243 250
10 153 359 305 305 296 285 264 285 300 323 272 141 138 264 244 183 118 9 272 164 181 210 233 227 242 261 267 266 267 281 294 308 308 313 314 311 308 305 304 303 302 301 297 297 290 278 268 256 249 246 241 238 223 217 215 220 220 216 216 224 227 230 235 232 223 220 216 221 219 220 220 220 218 220 221 221 224 226 227 225 222 223 226 226 229 229 228 229 232 225 223 225 232 233 235 243
107 120 120 103 130 111 221 267 261 257 278 275 125 337 284 292 331 197 115 208 303 228 233 264 254 279 276 281 290 292 321 352 344 315 303 301 300 301 299 299 296 297 300 293 291 287 278 270 257 250 250 243 239 230 220 223 221 224 225 224 225 227 219 222 220 224 221 217 220 218 217 219 218 217 216 219 221 223 224 224 223 222 223 225 225 226 225 223 224 227 228 227 228 230 233 231 233
101 187 237 192 180 181 149 168 277 250 230 190 81 348 316 307 337 333 161 94 57 15 9 314 279 247 254 243 267 353 6 353 339 323 309 301 299 298 299 297 295 302 298 298 294 287 282 272 263 258 255 251 240 234 223 225 222 222 229 230 228 227 222 217 217 220 218 216 220 218 217 219 217 220 217 219 220 220 221 220 222 222 221 224 225 223 222 221 221 221 222 225 229 227 230 230 233
226 266 296 285 199 155 182 179 206 260 288 103 35 351 308 287 306 133 225 342 278 284 306 310 317 326 333 345 6 3 352 339 324 315 311 310 312 314 318 322 327 328 328 323 306 291 282 275 269 265 264 253 244 235 228 228 225 227 231 232 231 228 223 221 221 225 217 216 216 218 216 217 219 219 219 221 219 215 216 217 218 222 223 222 222 221 220 217 217 217 219 219 221 222 227 230 229
236 259 258 315 308 304 272 173 268 193 301 109 92 305 273 225 243 286 291 275 241 190 266 311 336 337 337 333 338 341 330 323 315 311 310 312 317 322 326 327 329 333 330 326 321 311 291 282 271 268 268 261 248 236 232 231 228 230 228 230 232 230 227 226 228 229 224 221 215 215 211 214 214 218 218 219 219 212 211 214 214 216 219 219 219 219 218 217 217 218 219 221 222 219 216 220 226
242 280 327 311 323 320 284 299 216 261 124 107 115 42 253 282 287 285 280 321 5 13 352 359 352 324 321 324 326 324 316 309 307 309 311 316 317 321 324 326 329 328 327 323 317 308 301 283 277 264 269 267 255 240 236 235 233 233 231 231 231 229 229 227 229 229 226 221 216 214 212 213 215 216 217 217 215 212 213 214 215 217 219 219 215 216 217 216 217 221 219 220 219 220 221 219 226
334 77 279 332 265 296 308 316 303 311 310 334 148 291 236 284 74 148 303 303 317 33 15 325 281 296 301 296 287 283 293 306 312 320 321 323 325 327 327 330 332 331 329 326 324 322 315 299 291 276 274 270 255 245 239 238 239 236 233 231 230 230 230 228 228 226 225 220 216 215 213 210 213 215 218 221 216 215 215 214 215 217 217 218 216 215 215 216 215 219 222 221 221 219 218 218 220
109 2 359 232 215 347 263 359 300 319 331 288 178 227 167 260 340 306 347 305 78 111 84 52 356 13 281 290 315 326 326 327 328 325 325 326 325 327 334 342 341 336 333 332 332 331 328 322 307 292 281 282 276 256 246 242 242 240 234 232 231 229 231 231 231 226 224 220 218 213 213 208 210 210 216 218 218 215 215 215 215 218 216 217 217 217 215 214 214 217 219 218 217 214 218 215 220
118 206 231 51 17 258 291 155 96 198 194 240 236 271 239 249 250 281 295 30 42 42 14 350 346 348 346 343 340 337 334 330 330 331 332 332 336 341 346 345 340 336 334 331 329 327 325 322 318 310 301 290 276 262 257 250 247 243 240 236 235 232 229 228 229 227 222 218 215 217 216 209 205 206 209 213 218 216 216 215 217 217 218 216 217 217 214 216 214 215 219 218 217 216 217 217 219
104 243 90 111 351 337 249 289 161 226 263 280 137 272 291 13 317 76 16 11 23 11 355 349 351 352 351 346 343 339 335 333 331 332 333 335 339 345 348 341 335 331 326 324 325 323 318 314 307 309 308 302 294 280 263 255 251 248 246 243 238 234 233 232 231 230 224 216 212 215 214 208 205 201 205 211 214 218 217 216 218 219 218 219 217 216 214 213 214 219 217 220 220 219 218 219 221
295 8 69 274 247 213 130 288 278 287 261 275 211 276 269 246 271 356 359 10 5 1 349 349 348 347 344 342 338 337 334 332 334 335 334 337 342 348 344 333 332 330 328 322 315 311 312 313 313 307 302 300 299 297 282 267 254 250 249 246 243 238 235 234 232 230 226 220 216 212 208 208 203 199 202 207 210 214 217 216 218 221 221 220 219 217 213 214 211 215 216 220 219 218 218 219 218
82 182 176 38 247 266 236 237 327 85 281 309 267 105 294 174 143 14 348 24 5 346 349 342 337 339 339 334 335 333 334 331 330 330 331 336 346 344 338 333 330 329 327 326 324 324 321 318 313 311 308 305 296 289 282 275 266 255 249 246 244 240 236 233 230 226 224 224 220 216 209 205 203 197 203 205 210 212 215 218 219 221 222 221 219 218 217 217 212 213 213 216 216 214 219 220 219
146 194 208 135 330 360 321 297 230 270 296 284 295 293 281 109 132 328 6 22 354 337 340 339 333 335 336 335 333 332 328 328 328 329 331 342 344 337 331 329 326 325 324 325 327 327 327 329 324 322 320 314 309 304 296 284 274 263 255 249 246 238 236 233 231 227 227 225 220 215 211 208 197 203 198 203 210 214 217 221 221 222 223 220 220 220 217 215 215 214 214 216 215 215 218 221 220
219 207 228 202 165 210 244 266 101 315 240 271 264 269 274 193 162 326 38 0 343 351 345 337 333 333 335 333 333 330 327 324 326 327 335 342 333 327 327 325 326 325 326 327 329 329 331 331 332 329 317 307 304 302 301 294 284 271 262 260 254 249 241 233 228 226 226 225 216 210 206 201 203 206 200 204 209 214 217 222 221 223 224 223 223 222 219 216 215 216 216 214 217 219 223 224 222